Meknes, Morocco

6:14 PM WEST on September 21, 2017 (GMT +0100)
Meknes

Weather History for GMFM - December, 2012

Change the Weather History Date:

Monday, December 10, 2012

  Actual Average (GMFF) Record (GMFF)
Temperature  
Mean Temperature 54 °F -  
Max Temperature 63 °F 60 °F 71 °F (2010)
Min Temperature 44 °F 42 °F 32 °F (2013)
Degree Days  
Heating Degree Days 12    
Growing Degree Days 4 (Base 50)    
Moisture  
Dew Point 46 °F    
Average Humidity 78    
Maximum Humidity 94    
Minimum Humidity 50    
Precipitation  
Precipitation 0.00 in 0.11 in - ()
Sea Level Pressure  
Sea Level Pressure 30.16 in    
Wind  
Wind Speed 6 mph ()    
Max Wind Speed 50 mph    
Max Gust Speed -    
Visibility 4.5 miles    
Events      
Averages and records for this station are not official NWS values.
T = Trace of Precipitation, MM = Missing Value Source: Averaged Metar Reports

Daily Weather History Graph

Daily Weather History Graph

Search for Another Location

Airport or City:

Trip Planner

Search our weather history database for the weather conditions in past years. The results will help you decide how hot, cold, wet, or windy it might be!

Date:

Astronomy

Dec. 10, 2012 Rise Set
Actual Time 7:16 AM WET 5:13 PM WET
Civil Twilight 6:48 AM WET 5:41 PM WET
Nautical Twilight 6:17 AM WET 6:12 PM WET
Astronomical Twilight 5:47 AM WET 6:42 PM WET
Moon 3:49 AM WET (12/10) 2:47 PM WET (12/10)
Length of Visible Light 10h 52m
Length of Day
9h 56m
Waning Crescent, 12% of the Moon is Illuminated
Dec 10
Waning Crescent
Dec 13
New
Dec 20
First Quarter
Dec 28
Full
Jan 5
Last Quarter

Hourly Weather History & Observations

Time (WET) Temp. Windchill Dew Point Humidity Pressure Visibility Wind Dir Wind Speed Gust Speed Precip Events Conditions
12:00 AM 47 °F - 45 °F 88% 30.21 in 5 mi SE 4.6 mph - -   Clear
12:00 AM 46.4 °F 34.9 °F 44.6 °F 93% 30.18 in 5.0 mi SE 49.5 mph - N/A   Unknown
1:00 AM 46.4 °F 45.2 °F 44.6 °F 93% 30.18 in 5.0 mi SE 3.5 mph - N/A   Unknown
2:00 AM 44.6 °F 42.2 °F 42.8 °F 93% 30.18 in 5.0 mi SSE 4.6 mph - N/A   Unknown
3:00 AM 48 °F - 44 °F 83% 30.18 in 5 mi Calm Calm - -   Clear
3:00 AM 48.2 °F - 44.6 °F 87% 30.15 in 5.0 mi Calm Calm - N/A   Unknown
4:00 AM 50.0 °F - 42.8 °F 76% 30.15 in 5.0 mi SSW 5.8 mph - N/A   Unknown
5:00 AM 48.2 °F - 41.0 °F 76% 30.15 in 5.0 mi South 5.8 mph - N/A   Unknown
6:00 AM 48 °F - 39 °F 63% 30.18 in 6 mi SSW 4.6 mph - -   Clear
6:00 AM 48.2 °F - 39.2 °F 71% 30.15 in - SSW 4.6 mph - N/A   Clear
7:00 AM 46.4 °F - 39.2 °F 76% 30.18 in - Calm Calm - N/A   Clear
8:00 AM 44.6 °F 43.1 °F 39.2 °F 81% 30.18 in - South 3.5 mph - N/A   Clear
9:00 AM 54 °F - 43 °F 55% 30.20 in 6 mi SSW 3.5 mph - -   Scattered Clouds
9:00 AM 55.4 °F - 42.8 °F 63% 30.21 in - SSW 3.5 mph - N/A   Clear
10:00 AM 59.0 °F - 42.8 °F 55% 30.21 in - West 2.3 mph - N/A   Clear
11:00 AM 60.8 °F - 46.4 °F 59% 30.21 in 6.2 mi West 4.6 mph - N/A   Scattered Clouds
12:00 PM 62 °F - 48 °F 50% 30.14 in 6 mi West 6.9 mph - -   Scattered Clouds
12:00 PM 62.6 °F - 48.2 °F 59% 30.18 in 6.2 mi West 6.9 mph - N/A   Scattered Clouds
2:00 PM 62.6 °F - 50.0 °F 63% 30.12 in 6.2 mi West 5.8 mph - N/A   Scattered Clouds
3:00 PM 62 °F - 51 °F 57% 30.09 in 6 mi West 8.1 mph - -   Scattered Clouds
3:00 PM 62.6 °F - 50.0 °F 63% 30.12 in 6.2 mi West 8.1 mph - N/A   Scattered Clouds
4:00 PM 60.8 °F - 51.8 °F 72% 30.12 in 6.2 mi West 6.9 mph - N/A   Scattered Clouds
5:00 PM 57.2 °F - 51.8 °F 82% 30.12 in 5.0 mi WNW 5.8 mph - N/A   Scattered Clouds
5:30 PM 55.4 °F - 51.8 °F 88% 30.12 in 2.5 mi NW 3.5 mph - N/A   Scattered Clouds
6:00 PM 54 °F - 51 °F 88% 30.14 in 2 mi Calm Calm - -   Mist
6:00 PM 53.6 °F - 51.8 °F 94% 30.15 in 2.5 mi Calm Calm - N/A   Scattered Clouds
7:00 PM 51.8 °F - 50.0 °F 94% 30.15 in 2.5 mi Calm Calm - N/A   Partly Cloudy
8:00 PM 51.8 °F - 50.0 °F 94% 30.15 in 2.5 mi Calm Calm - N/A   Scattered Clouds
9:00 PM 52 °F - 50 °F 91% 30.16 in 2 mi SSE 2.3 mph - -   Mist
9:00 PM 51.8 °F - 50.0 °F 94% 30.15 in 2.5 mi SSE 2.3 mph - N/A   Scattered Clouds
10:00 PM 51.8 °F - 50.0 °F 94% 30.15 in 2.5 mi SSE 2.3 mph - N/A   Scattered Clouds
11:00 PM 48.2 °F - 46.4 °F 93% 30.15 in 2.5 mi Calm Calm - N/A   Scattered Clouds